TimeEST,TemperatureF,Dew PointF,Humidity,Sea Level PressureIn,VisibilityMPH,Wind Direction,Wind SpeedMPH,Gust SpeedMPH,PrecipitationIn,Events,Conditions,WindDirDegrees,DateUTC
12:53 AM,37.0,26.1,65,29.74,10.0,NW,6.9,-,N/A,,Mostly Cloudy,320,2013-03-02 05:53:00
1:53 AM,36.0,25.0,64,29.73,10.0,NW,8.1,-,N/A,,Mostly Cloudy,320,2013-03-02 06:53:00
2:53 AM,36.0,25.0,64,29.72,10.0,NW,8.1,-,N/A,,Clear,320,2013-03-02 07:53:00
3:53 AM,36.0,25.0,64,29.73,10.0,North,5.8,-,N/A,,Overcast,350,2013-03-02 08:53:00
4:53 AM,36.0,24.1,62,29.74,10.0,Variable,4.6,-,N/A,,Overcast,0,2013-03-02 09:53:00
5:53 AM,36.0,24.1,62,29.73,10.0,NW,6.9,-,N/A,,Overcast,320,2013-03-02 10:53:00
6:53 AM,35.1,24.1,64,29.74,10.0,NW,10.4,-,N/A,,Overcast,320,2013-03-02 11:53:00
7:53 AM,36.0,24.1,62,29.75,10.0,NW,9.2,-,N/A,,Overcast,310,2013-03-02 12:53:00
8:53 AM,37.9,25.0,60,29.74,10.0,NW,6.9,-,N/A,,Mostly Cloudy,320,2013-03-02 13:53:00
9:53 AM,37.9,24.1,57,29.72,10.0,NNW,9.2,18.4,N/A,,Overcast,330,2013-03-02 14:53:00
10:53 AM,37.9,24.1,57,29.72,10.0,NNW,6.9,-,N/A,,Overcast,330,2013-03-02 15:53:00
11:53 AM,39.0,23.0,53,29.71,10.0,WNW,8.1,-,N/A,,Overcast,300,2013-03-02 16:53:00
12:53 PM,39.9,23.0,51,29.70,10.0,NW,3.5,-,N/A,,Overcast,310,2013-03-02 17:53:00
1:53 PM,41.0,24.1,51,29.68,10.0,WNW,6.9,-,N/A,,Overcast,300,2013-03-02 18:53:00
2:53 PM,41.0,23.0,49,29.67,10.0,NW,8.1,-,N/A,,Overcast,310,2013-03-02 19:53:00
3:53 PM,39.9,25.0,55,29.66,10.0,NW,8.1,-,N/A,,Overcast,310,2013-03-02 20:53:00
4:53 PM,39.9,24.1,53,29.67,10.0,NW,6.9,-,N/A,,Overcast,320,2013-03-02 21:53:00
5:53 PM,39.0,24.1,55,29.69,10.0,Variable,4.6,-,N/A,,Overcast,0,2013-03-02 22:53:00
6:53 PM,37.9,24.1,57,29.70,10.0,NNW,3.5,-,N/A,,Overcast,330,2013-03-02 23:53:00
7:53 PM,37.4,24.8,60,29.70,10.0,NNW,6.9,-,N/A,,Overcast,330,2013-03-03 00:53:00
8:53 PM,37.0,24.1,59,29.70,10.0,NW,9.2,-,N/A,,Overcast,320,2013-03-03 01:53:00
9:53 PM,37.0,24.1,59,29.69,10.0,NNW,8.1,-,N/A,,Overcast,340,2013-03-03 02:53:00
10:53 PM,36.0,24.1,62,29.69,10.0,NNW,6.9,16.1,N/A,,Overcast,330,2013-03-03 03:53:00
11:53 PM,34.0,24.1,67,29.68,10.0,NNW,9.2,-,N/A,,Overcast,330,2013-03-03 04:53:00